{"data":{"norad_id":67435,"intl_designator":"2026-007A","name":"HULIANWANG DIGUI-137","alt_names":[],"object_type":"PAYLOAD","status":"ACTIVE","operator":null,"country":"PRC","launch_date":"2026-01-13","launch_site_code":"WSC","launch_vehicle":null,"mission":null,"orbit_class":"UNKNOWN","rcs_meters":null,"size_class":null,"mass_kg":null,"dimensions":null,"purposes":[],"wikipedia_slug":null,"has_3d_model":false,"image_url":null,"decayed_at":null,"tle_current":{"epoch":"2026-05-24T18:36:03.375648Z","epoch_age_seconds":94544,"freshness":"FRESH","line1":"1 67435U 26007A   26144.77503907 -.00000091  00000+0  71090-4 0  9996","line2":"2 67435  50.0057 169.8115 0000892 281.1737  78.9035 13.29325902 17672","mean_motion":13.29325902,"eccentricity":8.92e-5,"inclination_deg":50.0057,"raan_deg":169.8115,"arg_perigee_deg":281.1737,"mean_anomaly_deg":78.9035,"bstar":7.109e-5,"rev_number":1767,"period_min":108.32558049411,"perigee_km":1148.6354938108,"apogee_km":1149.9783898101,"semimajor_km":7527.4439418104,"source":"CELESTRAK","updated_at":"2026-05-25T13:38:07.003421Z"}}}